• In Belarus
  • List of Countries
  • For 7 days
  • Water Temperature
  • Satellite Maps
  • Weather Map
  • Weather Widgets
  • user-avatar
    Login

    Hourly Weather Kakanj

    Today, 21 January, Sunday

    Time Temperature Precipitation Wind Pressure Humidity
    00:00 -1°C° 0 mm 2 mps 717 mmHg 81%
    01:00 0°C° 0 mm 3 mps 716 mmHg 80%
    02:00 0°C° 0 mm 3 mps 715 mmHg 81%
    03:00 +1°C° 0 mm 3 mps 715 mmHg 82%
    04:00 +1°C° 0 mm 3 mps 714 mmHg 83%
    05:00 +2°C° 0.1 mm 3 mps 713 mmHg 84%
    06:00 +2°C° 0.1 mm 3 mps 712 mmHg 86%
    07:00 +2°C° 0.1 mm 3 mps 712 mmHg 87%
    08:00 +3°C° 0.2 mm 3 mps 712 mmHg 88%
    09:00 +4°C° 0.2 mm 3 mps 712 mmHg 89%
    10:00 +4°C° 0.2 mm 3 mps 712 mmHg 90%
    11:00 +5°C° 1 mm 2 mps 712 mmHg 92%
    12:00 +5°C° 1 mm 2 mps 712 mmHg 94%
    13:00 +6°C° 1 mm 1 mps 712 mmHg 96%
    14:00 +5°C° 1.6 mm 2 mps 712 mmHg 95%
    15:00 +4°C° 1.6 mm 2 mps 713 mmHg 94%
    16:00 +2°C° 1.6 mm 3 mps 713 mmHg 93%
    17:00 +2°C° 0.3 mm 3 mps 714 mmHg 92%
    18:00 +1°C° 0.3 mm 3 mps 715 mmHg 91%
    19:00 0°C° 0.3 mm 3 mps 716 mmHg 91%
    20:00 0°C° 0.1 mm 3 mps 717 mmHg 91%
    21:00 -1°C° 0.1 mm 3 mps 717 mmHg 91%
    22:00 -1°C° 0.1 mm 3 mps 718 mmHg 91%
    23:00 -1°C° 0.1 mm 3 mps 719 mmHg 91%

    Tomorrow, 22 January, Monday

    Time Temperature Precipitation Wind Pressure Humidity
    00:00 -1°C° 0.1 mm 3 mps 719 mmHg 91%
    01:00 -2°C° 0.1 mm 3 mps 720 mmHg 91%
    02:00 -2°C° 0.1 mm 3 mps 720 mmHg 91%
    03:00 -2°C° 0.1 mm 3 mps 720 mmHg 91%
    04:00 -4°C° 0.1 mm 3 mps 720 mmHg 91%
    05:00 -3°C° 0 mm 2 mps 720 mmHg 91%
    06:00 -4°C° 0 mm 2 mps 721 mmHg 92%
    07:00 -4°C° 0 mm 2 mps 721 mmHg 92%
    08:00 -3°C° 0 mm 2 mps 721 mmHg 89%
    09:00 -3°C° 0 mm 2 mps 721 mmHg 86%
    10:00 -2°C° 0 mm 2 mps 722 mmHg 83%
    11:00 +1°C° 0 mm 1 mps 722 mmHg 80%
    12:00 +2°C° 0 mm 1 mps 722 mmHg 77%
    13:00 +3°C° 0 mm 1 mps 721 mmHg 74%
    14:00 +2°C° 0 mm 1 mps 721 mmHg 76%
    15:00 +1°C° 0 mm 0 mps 721 mmHg 78%
    16:00 0°C° 0 mm 0 mps 721 mmHg 80%
    17:00 -1°C° 0 mm 0 mps 722 mmHg 80%
    18:00 -1°C° 0 mm 0 mps 722 mmHg 81%
    19:00 -1°C° 0 mm 1 mps 722 mmHg 81%
    20:00 -1°C° 0 mm 1 mps 722 mmHg 80%
    21:00 -1°C° 0 mm 1 mps 723 mmHg 79%
    22:00 -1°C° 0 mm 1 mps 723 mmHg 78%
    23:00 -1°C° 0 mm 1 mps 723 mmHg 77%

    Day after tomorrow, 23 January, Tuesday

    Time Temperature Precipitation Wind Pressure Humidity
    00:00 -1°C° 0 mm 1 mps 723 mmHg 76%
    01:00 -1°C° 0 mm 1 mps 723 mmHg 76%
    02:00 -1°C° 0 mm 1 mps 724 mmHg 76%
    03:00 -1°C° 0 mm 1 mps 724 mmHg 76%
    04:00 -1°C° 0 mm 1 mps 724 mmHg 76%
    05:00 -1°C° 0 mm 1 mps 724 mmHg 76%
    06:00 -1°C° 0 mm 1 mps 725 mmHg 76%
    07:00 0°C° 0 mm 1 mps 725 mmHg 77%
    08:00 +1°C° 0 mm 1 mps 726 mmHg 77%
    09:00 +3°C° 0 mm 1 mps 727 mmHg 76%
    10:00 +4°C° 0 mm 1 mps 727 mmHg 76%
    11:00 +4°C° 0 mm 1 mps 727 mmHg 78%
    12:00 +4°C° 0 mm 2 mps 728 mmHg 79%
    13:00 +4°C° 0 mm 2 mps 728 mmHg 80%
    14:00 +3°C° 0.1 mm 2 mps 728 mmHg 83%
    15:00 +3°C° 0.1 mm 2 mps 728 mmHg 85%
    16:00 +2°C° 0.1 mm 2 mps 729 mmHg 88%
    17:00 +3°C° 0.1 mm 1 mps 729 mmHg 89%
    18:00 +2°C° 0.1 mm 1 mps 730 mmHg 91%
    19:00 +1°C° 0.1 mm 1 mps 730 mmHg 92%
    20:00 +1°C° 0 mm 1 mps 731 mmHg 93%
    21:00 +1°C° 0 mm 1 mps 731 mmHg 93%
    22:00 0°C° 0 mm 1 mps 731 mmHg 94%
    23:00 0°C° 0 mm 1 mps 731 mmHg 94%

    24 January, Wednesday

    Time Temperature Precipitation Wind Pressure Humidity
    00:00 0°C° 0 mm 1 mps 732 mmHg 94%
    01:00 -1°C° 0 mm 1 mps 732 mmHg 94%
    02:00 -1°C° 0 mm 1 mps 732 mmHg 93%
    03:00 -1°C° 0 mm 1 mps 732 mmHg 93%
    04:00 -1°C° 0 mm 1 mps 732 mmHg 92%
    05:00 -1°C° 0 mm 1 mps 732 mmHg 92%
    06:00 -1°C° 0 mm 1 mps 732 mmHg 91%
    07:00 -2°C° 0 mm 1 mps 732 mmHg 90%
    08:00 0°C° 0 mm 1 mps 732 mmHg 86%
    09:00 +2°C° 0 mm 1 mps 733 mmHg 82%
    10:00 +3°C° 0 mm 1 mps 733 mmHg 79%
    11:00 +4°C° 0 mm 1 mps 733 mmHg 78%
    12:00 +5°C° 0 mm 1 mps 732 mmHg 77%
    13:00 +6°C° 0 mm 1 mps 732 mmHg 76%
    14:00 +5°C° 0 mm 1 mps 732 mmHg 78%
    15:00 +5°C° 0 mm 1 mps 732 mmHg 80%
    16:00 +4°C° 0 mm 1 mps 732 mmHg 82%
    17:00 +3°C° 0 mm 1 mps 732 mmHg 83%
    18:00 +2°C° 0 mm 1 mps 732 mmHg 84%
    19:00 +1°C° 0 mm 1 mps 732 mmHg 85%
    20:00 0°C° 0 mm 1 mps 732 mmHg 83%
    21:00 0°C° 0 mm 1 mps 732 mmHg 81%
    22:00 0°C° 0 mm 1 mps 731 mmHg 80%
    23:00 0°C° 0 mm 1 mps 731 mmHg 78%

    25 January, Thursday

    Time Temperature Precipitation Wind Pressure Humidity
    00:00 0°C° 0 mm 1 mps 731 mmHg 76%
    01:00 0°C° 0 mm 1 mps 731 mmHg 74%
    02:00 0°C° 0 mm 1 mps 730 mmHg 72%
    03:00 0°C° 0 mm 1 mps 730 mmHg 71%
    04:00 0°C° 0 mm 1 mps 729 mmHg 69%
    05:00 0°C° 0 mm 1 mps 729 mmHg 69%
    06:00 0°C° 0 mm 1 mps 729 mmHg 68%
    07:00 +1°C° 0 mm 1 mps 729 mmHg 67%
    08:00 +2°C° 0 mm 1 mps 729 mmHg 68%
    09:00 +4°C° 0 mm 1 mps 729 mmHg 69%
    10:00 +6°C° 0 mm 1 mps 729 mmHg 70%
    11:00 +7°C° 0 mm 1 mps 728 mmHg 71%
    12:00 +7°C° 0 mm 0 mps 728 mmHg 71%
    13:00 +8°C° 0 mm 0 mps 727 mmHg 72%
    14:00 +7°C° 0 mm 0 mps 727 mmHg 74%
    15:00 +6°C° 0 mm 0 mps 727 mmHg 77%
    16:00 +5°C° 0 mm 0 mps 726 mmHg 79%
    17:00 +5°C° 0 mm 1 mps 726 mmHg 80%
    18:00 +4°C° 0 mm 1 mps 726 mmHg 80%
    19:00 +3°C° 0 mm 1 mps 726 mmHg 80%
    20:00 +2°C° 0 mm 1 mps 726 mmHg 79%
    21:00 +2°C° 0 mm 1 mps 726 mmHg 79%
    22:00 +2°C° 0 mm 1 mps 726 mmHg 78%
    23:00 +2°C° 0 mm 1 mps 726 mmHg 77%

    26 January, Friday

    Time Temperature Precipitation Wind Pressure Humidity
    00:00 +2°C° 0 mm 1 mps 725 mmHg 77%
    01:00 +2°C° 0 mm 1 mps 725 mmHg 76%
    02:00 +2°C° 0 mm 1 mps 725 mmHg 76%
    03:00 +2°C° 0 mm 1 mps 725 mmHg 75%
    04:00 +1°C° 0 mm 1 mps 725 mmHg 75%
    05:00 +1°C° 0 mm 1 mps 725 mmHg 75%
    06:00 +1°C° 0 mm 1 mps 725 mmHg 75%
    07:00 +1°C° 0 mm 1 mps 725 mmHg 76%
    08:00 +3°C° 0 mm 1 mps 725 mmHg 75%
    09:00 +5°C° 0 mm 1 mps 725 mmHg 75%
    10:00 +6°C° 0 mm 1 mps 726 mmHg 75%
    11:00 +7°C° 0 mm 1 mps 726 mmHg 75%
    12:00 +8°C° 0 mm 1 mps 726 mmHg 75%
    13:00 +9°C° 0 mm 1 mps 725 mmHg 75%
    14:00 +8°C° 0 mm 1 mps 726 mmHg 79%
    15:00 +7°C° 0 mm 1 mps 726 mmHg 83%
    16:00 +6°C° 0 mm 1 mps 726 mmHg 87%
    17:00 +6°C° 0 mm 1 mps 726 mmHg 88%
    18:00 +5°C° 0 mm 1 mps 726 mmHg 89%
    19:00 +4°C° 0 mm 1 mps 726 mmHg 90%
    20:00 +4°C° 0 mm 1 mps 727 mmHg 90%
    21:00 +4°C° 0 mm 1 mps 727 mmHg 91%
    22:00 +3°C° 0 mm 1 mps 727 mmHg 91%
    23:00 +3°C° 0 mm 1 mps 727 mmHg 91%
    Show more